Location: Bijele Vode
(45.2833°N, 16.2000°E)
Time: 06:02:17
(UTC+00:00)

Envisat - Visible Passes

Search period start: 18 September 2021 00:00
Search period end: 28 September 2021 00:00
Orbit: 764 x 766 km, 98.2° (Epoch: 17 September)

Date Brightness Start Highest point End Pass type
(mag) Time Alt. Az. Time Alt. Az. Time Alt. Az.
18 Sep 5.1 03:20:06 10° NE 03:24:29 28° E 03:28:50 10° SSE visible
19 Sep 6.0 02:44:49 10° ENE 02:47:14 13° E 02:49:39 10° ESE visible
20 Sep 4.1 03:45:03 10° NNE 03:49:59 48° E 03:54:52 10° S visible
21 Sep 5.5 03:08:53 10° NE 03:12:52 23° E 03:16:51 10° SE visible
22 Sep 6.3 02:35:00 10° E 02:35:34 10° E 02:36:08 10° E visible
22 Sep 3.2 04:10:15 10° NNE 04:15:23 82° ESE 04:20:27 10° SSW visible
23 Sep 4.6 03:33:40 10° NNE 03:38:25 38° E 03:43:08 10° SSE visible
24 Sep 5.8 02:57:47 10° NE 03:01:15 18° E 03:04:41 10° SE visible
25 Sep 3.5 03:58:47 10° NNE 04:03:51 65° ESE 04:08:53 10° S visible
26 Sep 5.0 03:22:21 10° NNE 03:26:50 30° E 03:31:17 10° SSE visible
27 Sep 6.0 02:46:53 10° NE 02:49:36 14° E 02:52:19 10° ESE visible
